Overview Statistics Trail Chart Weather Telemetry Raw packets
 

This is the latest recevied weather packets stored in our database for station/object 1NW106. If no packets are shown the sender has not sent any weather packets the latest 10 day(s).

<< 15 16 17 18 19 20 21 >>
Time Temp. Humidity Pressure Rain* Wind** Luminosity Snow
1788166382 26.11° C 99% 1004.8 hPa 2.03 mm - - -
1788165182 26.11° C 99% 1005.2 hPa 2.03 mm - - -
1788164582 26.11° C 99% 1005.6 hPa 2.03 mm - - -
1788163982 26.11° C 99% 1005.9 hPa 2.03 mm - - -
1788163382 26.67° C 97% 1006.5 hPa 2.03 mm - - -
1788162811 26.67° C 97% 1006.8 hPa 2.03 mm - - -
1788162182 26.67° C 97% 1006.8 hPa 2.03 mm - - -
1788161582 27.22° C 95% 1007.3 hPa 2.03 mm - - -
1788160982 27.22° C 94% 1007.5 hPa 2.03 mm - - -
1788160382 26.67° C 98% 1007 hPa 2.03 mm - - -
1788159782 26.67° C 98% 1006.7 hPa 2.03 mm - - -
1788159182 26.11° C 99% 1006.4 hPa 2.03 mm - - -
1788158582 26.11° C 99% 1006.1 hPa 2.03 mm - - -
1788157996 25.56° C 99% 1006.1 hPa 2.03 mm - - -
1788157382 25.56° C 99% 1006.3 hPa 2.03 mm - - -
1788156782 25.56° C 99% 1006.8 hPa 2.03 mm - - -
1788156182 25.56° C 99% 1006.7 hPa 2.03 mm - - -
1788155582 26.11° C 99% 1006.9 hPa 2.03 mm - - -
1788154982 25.56° C 99% 1006.6 hPa 2.03 mm - - -
1788154382 26.11° C 99% 1007 hPa 2.03 mm - - -
1788153782 26.11° C 99% 1007.2 hPa 2.03 mm - - -
1788153182 25.56° C 99% 1007.6 hPa 2.03 mm - - -
1788152640 25.56° C 99% 1007.3 hPa 2.03 mm - - -
1788152031 25.56° C 99% 1006.3 hPa 2.03 mm - - -
1788151423 25° C 99% 1006.1 hPa 2.03 mm - - -

* Rain latest hour (hover to see other rain measurements)
** Current wind speed in m/s (hover to see current wind gust speed)